Time,TemperatureF,DewpointF,PressureIn,WindDirection,WindDirectionDegrees,WindSpeedMPH,WindSpeedGustMPH,Humidity,HourlyPrecipIn,Conditions,Clouds,dailyrainin,SolarRadiationWatts/m^2,SoftwareType,DateUTC
2013-11-08 00:00:00,68.5,67.3,30.03,NW,315,0.0,0.0,96,0.00,,,0.00,1580.0,meteobridge,2013-11-08 05:00:00,
2013-11-08 00:01:00,68.5,67.3,30.03,NW,315,0.0,0.0,96,0.00,,,0.00,1580.0,meteobridge,2013-11-08 05:01:00,
2013-11-08 00:02:00,68.5,67.3,30.02,NW,315,0.0,0.0,96,0.00,,,0.00,1580.0,meteobridge,2013-11-08 05:02:00,
2013-11-08 00:03:00,68.5,67.6,30.02,NW,315,0.0,0.0,97,0.00,,,0.00,1580.0,meteobridge,2013-11-08 05:03:00,
2013-11-08 00:08:00,68.4,67.5,30.02,NE,45,0.0,0.7,97,0.00,,,0.00,1580.0,meteobridge,2013-11-08 05:08:00,
2013-11-08 00:14:00,68.5,67.6,30.02,NE,45,0.0,0.0,97,0.00,,,0.00,1543.0,meteobridge,2013-11-08 05:14:00,
2013-11-08 00:19:00,68.4,67.5,30.02,West,270,0.0,2.2,97,0.00,,,0.00,1543.0,meteobridge,2013-11-08 05:19:00,
2013-11-08 00:24:00,68.4,67.8,30.02,North,0,0.0,0.0,98,0.00,,,0.00,1543.0,meteobridge,2013-11-08 05:24:00,
2013-11-08 00:29:00,68.4,67.8,30.02,West,270,0.0,0.0,98,0.00,,,0.00,1543.0,meteobridge,2013-11-08 05:29:00,
2013-11-08 00:34:00,68.4,67.8,30.02,North,0,0.0,0.0,98,0.00,,,0.00,1543.0,meteobridge,2013-11-08 05:34:00,
2013-11-08 00:39:00,68.2,67.6,30.02,North,0,0.7,0.7,98,0.00,,,0.00,1543.0,meteobridge,2013-11-08 05:39:00,
2013-11-08 00:45:00,68.2,67.6,30.02,North,0,0.0,0.0,98,0.00,,,0.00,1543.0,meteobridge,2013-11-08 05:45:00,
2013-11-08 00:50:00,68.0,67.5,30.02,NW,315,0.0,0.0,98,0.00,,,0.00,1543.0,meteobridge,2013-11-08 05:50:00,
2013-11-08 00:55:00,68.0,67.6,30.02,NW,315,0.0,0.0,99,0.00,,,0.00,1543.0,meteobridge,2013-11-08 05:55:00,
2013-11-08 01:00:00,68.0,67.6,30.02,North,0,0.0,0.0,99,0.00,,,0.00,1543.0,meteobridge,2013-11-08 06:00:00,
2013-11-08 01:05:00,67.8,67.5,30.02,West,270,0.0,0.0,99,0.00,,,0.00,1543.0,meteobridge,2013-11-08 06:05:00,
2013-11-08 01:10:00,67.8,67.5,30.01,North,0,0.0,0.0,99,0.00,,,0.00,1506.0,meteobridge,2013-11-08 06:10:00,
2013-11-08 01:16:00,67.6,67.3,30.01,North,0,0.0,0.0,99,0.00,,,0.00,1506.0,meteobridge,2013-11-08 06:16:00,
2013-11-08 01:21:00,67.6,67.3,30.01,West,270,1.6,1.6,99,0.00,,,0.00,1506.0,meteobridge,2013-11-08 06:21:00,
2013-11-08 01:26:00,67.5,67.1,30.01,North,0,0.0,1.6,99,0.00,,,0.00,1506.0,meteobridge,2013-11-08 06:26:00,
2013-11-08 01:32:00,67.6,67.3,30.01,North,0,0.0,0.0,99,0.00,,,0.00,1506.0,meteobridge,2013-11-08 06:32:00,
2013-11-08 01:37:00,67.6,67.3,30.01,NW,315,0.0,0.0,99,0.00,,,0.00,1506.0,meteobridge,2013-11-08 06:37:00,
2013-11-08 01:42:00,67.6,67.3,30.01,East,90,2.2,2.2,99,0.00,,,0.00,1506.0,meteobridge,2013-11-08 06:42:00,
2013-11-08 01:48:00,67.5,67.1,30.02,North,0,1.6,1.6,99,0.00,,,0.00,1506.0,meteobridge,2013-11-08 06:48:00,
2013-11-08 01:53:00,67.5,67.1,30.01,North,0,1.6,1.6,99,0.00,,,0.00,1506.0,meteobridge,2013-11-08 06:53:00,
2013-11-08 01:58:00,67.6,67.3,30.02,NW,315,0.0,0.0,99,0.00,,,0.00,1506.0,meteobridge,2013-11-08 06:58:00,
2013-11-08 02:03:00,67.6,67.3,30.02,SW,225,0.0,0.7,99,0.00,,,0.00,1470.0,meteobridge,2013-11-08 07:03:00,
2013-11-08 02:08:00,67.5,67.1,30.02,North,0,0.0,0.0,99,0.00,,,0.00,1470.0,meteobridge,2013-11-08 07:08:00,
2013-11-08 02:13:00,67.6,67.3,30.02,NW,315,0.0,0.0,99,0.00,,,0.00,1470.0,meteobridge,2013-11-08 07:13:00,
2013-11-08 02:19:00,67.5,67.1,30.02,NE,45,0.0,0.0,99,0.00,,,0.00,1470.0,meteobridge,2013-11-08 07:19:00,
2013-11-08 02:24:00,67.3,66.9,30.02,NE,45,0.0,0.0,99,0.00,,,0.00,1470.0,meteobridge,2013-11-08 07:24:00,
2013-11-08 02:29:00,67.5,67.1,30.02,North,0,0.0,0.0,99,0.00,,,0.00,1433.0,meteobridge,2013-11-08 07:29:00,
2013-11-08 02:34:00,67.5,67.1,30.02,North,0,0.0,0.0,99,0.00,,,0.00,1433.0,meteobridge,2013-11-08 07:34:00,
2013-11-08 02:39:00,67.3,66.9,30.02,North,0,0.0,0.0,99,0.00,,,0.00,1433.0,meteobridge,2013-11-08 07:39:00,
2013-11-08 02:44:00,67.5,67.1,30.02,North,0,0.0,0.0,99,0.00,,,0.00,1433.0,meteobridge,2013-11-08 07:44:00,
2013-11-08 02:50:00,67.6,67.3,30.03,North,0,0.0,0.0,99,0.00,,,0.00,1433.0,meteobridge,2013-11-08 07:50:00,
2013-11-08 02:55:00,67.5,67.1,30.02,North,0,0.0,0.0,99,0.00,,,0.00,1433.0,meteobridge,2013-11-08 07:55:00,
2013-11-08 03:00:00,67.6,67.3,30.03,NE,45,0.0,0.0,99,0.00,,,0.00,1433.0,meteobridge,2013-11-08 08:00:00,
2013-11-08 03:05:00,67.8,67.5,30.02,NE,45,0.0,0.0,99,0.00,,,0.00,1433.0,meteobridge,2013-11-08 08:05:00,
2013-11-08 03:10:00,67.8,67.5,30.02,NE,45,0.0,0.0,99,0.00,,,0.00,1396.0,meteobridge,2013-11-08 08:10:00,
2013-11-08 03:15:00,67.8,67.5,30.02,South,180,0.0,0.0,99,0.00,,,0.00,1396.0,meteobridge,2013-11-08 08:15:00,
2013-11-08 03:21:00,67.8,67.5,30.02,South,180,0.0,0.0,99,0.00,,,0.00,1396.0,meteobridge,2013-11-08 08:21:00,
2013-11-08 03:26:00,67.8,67.5,30.02,North,0,0.0,0.0,99,0.00,,,0.00,1396.0,meteobridge,2013-11-08 08:26:00,
2013-11-08 03:31:00,67.8,67.5,30.02,North,0,0.0,0.0,99,0.00,,,0.00,1396.0,meteobridge,2013-11-08 08:31:00,
2013-11-08 03:36:00,67.8,67.5,30.02,North,0,0.0,0.0,99,0.00,,,0.00,1396.0,meteobridge,2013-11-08 08:36:00,
2013-11-08 03:41:00,67.8,67.5,30.02,NE,45,0.0,0.0,99,0.00,,,0.00,1360.0,meteobridge,2013-11-08 08:41:00,
2013-11-08 03:46:00,67.8,67.5,30.02,North,0,0.0,0.0,99,0.00,,,0.00,1360.0,meteobridge,2013-11-08 08:46:00,
2013-11-08 03:52:00,67.6,67.3,30.02,NW,315,0.0,0.0,99,0.00,,,0.00,1360.0,meteobridge,2013-11-08 08:52:00,
2013-11-08 03:57:00,67.5,67.1,30.02,NW,315,0.0,0.0,99,0.00,,,0.00,1360.0,meteobridge,2013-11-08 08:57:00,
2013-11-08 04:02:00,67.3,66.9,30.02,NW,315,0.0,0.0,99,0.00,,,0.00,1360.0,meteobridge,2013-11-08 09:02:00,
2013-11-08 04:07:00,67.3,66.9,30.02,NW,315,0.0,0.0,99,0.00,,,0.00,1360.0,meteobridge,2013-11-08 09:07:00,
2013-11-08 04:12:00,67.1,66.7,30.02,North,0,0.0,0.0,99,0.00,,,0.00,1360.0,meteobridge,2013-11-08 09:12:00,
2013-11-08 04:17:00,67.1,66.7,30.02,NW,315,0.0,0.0,99,0.00,,,0.00,1360.0,meteobridge,2013-11-08 09:17:00,
2013-11-08 04:23:00,67.3,66.9,30.02,North,0,0.7,0.7,99,0.00,,,0.00,1323.0,meteobridge,2013-11-08 09:23:00,
2013-11-08 04:28:00,67.3,66.9,30.02,WNW,293,0.7,2.2,99,0.00,,,0.00,1323.0,meteobridge,2013-11-08 09:28:00,
2013-11-08 04:33:00,67.5,67.1,30.02,NW,315,3.1,3.1,99,0.00,,,0.00,1323.0,meteobridge,2013-11-08 09:33:00,
2013-11-08 04:38:00,67.5,67.1,30.02,West,270,0.7,2.2,99,0.00,,,0.00,1323.0,meteobridge,2013-11-08 09:38:00,
2013-11-08 04:43:00,67.5,67.1,30.02,North,0,3.8,3.8,99,0.00,,,0.00,1323.0,meteobridge,2013-11-08 09:43:00,
2013-11-08 04:48:00,67.5,67.1,30.03,NW,315,0.0,0.0,99,0.00,,,0.00,1287.0,meteobridge,2013-11-08 09:48:00,
2013-11-08 04:54:00,67.5,67.1,30.03,NE,45,0.0,1.6,99,0.00,,,0.00,1287.0,meteobridge,2013-11-08 09:54:00,
2013-11-08 04:59:00,67.3,66.9,30.03,NE,45,0.7,1.6,99,0.00,,,0.00,1287.0,meteobridge,2013-11-08 09:59:00,
2013-11-08 05:04:00,67.5,67.1,30.03,NE,45,2.2,4.5,99,0.00,,,0.00,1287.0,meteobridge,2013-11-08 10:04:00,
2013-11-08 05:09:00,67.3,66.9,30.03,ESE,113,3.1,3.1,99,0.00,,,0.00,1287.0,meteobridge,2013-11-08 10:09:00,
2013-11-08 05:14:00,67.5,67.1,30.03,NE,45,2.2,2.2,99,0.00,,,0.00,1287.0,meteobridge,2013-11-08 10:14:00,
2013-11-08 05:19:00,67.3,66.9,30.03,NE,45,2.2,2.2,99,0.00,,,0.00,1250.0,meteobridge,2013-11-08 10:19:00,
2013-11-08 05:25:00,67.3,66.9,30.03,NNE,23,2.2,2.2,99,0.00,,,0.00,1250.0,meteobridge,2013-11-08 10:25:00,
2013-11-08 05:30:00,67.3,66.9,30.03,North,0,3.1,3.1,99,0.00,,,0.00,1250.0,meteobridge,2013-11-08 10:30:00,
2013-11-08 05:35:00,67.3,66.9,30.03,NE,45,0.7,3.8,99,0.00,,,0.00,1250.0,meteobridge,2013-11-08 10:35:00,
2013-11-08 05:40:00,67.3,66.9,30.03,NE,45,2.2,3.8,99,0.00,,,0.00,1250.0,meteobridge,2013-11-08 10:40:00,
2013-11-08 05:45:00,67.1,66.7,30.03,North,0,2.2,2.2,99,0.00,,,0.00,1250.0,meteobridge,2013-11-08 10:45:00,
2013-11-08 05:50:00,67.1,66.7,30.03,NW,315,3.8,3.8,99,0.00,,,0.00,1250.0,meteobridge,2013-11-08 10:50:00,
2013-11-08 05:56:00,66.9,66.6,30.04,NW,315,3.8,4.5,99,0.00,,,0.00,1250.0,meteobridge,2013-11-08 10:56:00,
2013-11-08 06:01:00,66.7,66.4,30.05,North,0,3.1,3.1,99,0.00,,,0.00,1250.0,meteobridge,2013-11-08 11:01:00,
2013-11-08 06:06:00,66.7,66.4,30.04,North,0,3.8,3.8,99,0.00,,,0.00,1250.0,meteobridge,2013-11-08 11:06:00,
2013-11-08 06:11:00,66.7,66.4,30.04,North,0,2.2,5.4,99,0.00,,,0.00,1213.0,meteobridge,2013-11-08 11:11:00,
2013-11-08 06:16:00,66.6,66.2,30.05,North,0,2.2,2.2,99,0.00,,,0.00,1213.0,meteobridge,2013-11-08 11:16:00,
2013-11-08 06:21:00,66.7,66.4,30.05,NE,45,1.6,1.6,99,0.00,,,0.00,1213.0,meteobridge,2013-11-08 11:21:00,
2013-11-08 06:27:00,66.6,66.2,30.05,NNE,23,3.1,3.1,99,0.00,,,0.00,1213.0,meteobridge,2013-11-08 11:27:00,
2013-11-08 06:32:00,66.6,66.2,30.06,East,90,3.8,3.8,99,0.00,,,0.00,1213.0,meteobridge,2013-11-08 11:32:00,
2013-11-08 06:37:00,66.6,66.2,30.05,SW,225,2.2,2.2,99,0.00,,,0.00,1213.0,meteobridge,2013-11-08 11:37:00,
2013-11-08 06:42:00,66.6,66.2,30.06,NNE,23,4.5,4.5,99,0.00,,,0.00,1177.0,meteobridge,2013-11-08 11:42:00,
2013-11-08 06:47:00,66.4,66.0,30.06,North,0,2.2,5.4,99,0.00,,,0.00,1177.0,meteobridge,2013-11-08 11:47:00,
2013-11-08 06:52:00,66.4,66.0,30.06,NW,315,0.7,1.6,99,0.00,,,0.00,1177.0,meteobridge,2013-11-08 11:52:00,
2013-11-08 06:58:00,66.4,66.0,30.07,West,270,4.5,4.5,99,0.00,,,0.00,1177.0,meteobridge,2013-11-08 11:58:00,
2013-11-08 07:03:00,66.7,66.4,30.07,North,0,3.1,3.1,99,0.00,,,0.00,1177.0,meteobridge,2013-11-08 12:03:00,
2013-11-08 07:08:00,66.7,66.4,30.07,NW,315,3.1,3.1,99,0.00,,,0.00,1177.0,meteobridge,2013-11-08 12:08:00,
2013-11-08 07:13:00,66.9,66.6,30.07,NW,315,1.6,4.5,99,0.00,,,0.00,1177.0,meteobridge,2013-11-08 12:13:00,
2013-11-08 07:18:00,67.1,66.7,30.07,North,0,2.2,3.1,99,0.00,,,0.00,1177.0,meteobridge,2013-11-08 12:18:00,
2013-11-08 07:23:00,67.5,67.1,30.07,East,90,4.5,4.5,99,0.00,,,0.00,1140.0,meteobridge,2013-11-08 12:23:00,
2013-11-08 07:29:00,68.0,67.6,30.07,NE,45,1.6,4.5,99,0.00,,,0.00,1140.0,meteobridge,2013-11-08 12:29:00,
2013-11-08 07:34:00,68.5,68.2,30.07,North,0,6.9,6.9,99,0.00,,,0.00,1140.0,meteobridge,2013-11-08 12:34:00,
2013-11-08 07:39:00,68.9,68.5,30.08,NE,45,3.8,3.8,99,0.00,,,0.00,1140.0,meteobridge,2013-11-08 12:39:00,
2013-11-08 07:44:00,69.1,68.7,30.07,SE,135,3.8,4.5,99,0.00,,,0.00,1140.0,meteobridge,2013-11-08 12:44:00,
2013-11-08 07:49:00,69.3,68.9,30.08,South,180,1.6,4.5,99,0.00,,,0.00,1140.0,meteobridge,2013-11-08 12:49:00,
2013-11-08 07:54:00,69.4,69.1,30.08,West,270,3.1,4.5,99,0.00,,,0.00,1140.0,meteobridge,2013-11-08 12:54:00,
2013-11-08 08:00:00,69.4,69.1,30.08,NE,45,7.6,7.6,99,0.00,,,0.00,1104.0,meteobridge,2013-11-08 13:00:00,
2013-11-08 08:05:00,69.8,69.4,30.08,East,90,2.2,3.8,99,0.00,,,0.00,1104.0,meteobridge,2013-11-08 13:05:00,
2013-11-08 08:10:00,70.0,69.6,30.08,NW,315,1.6,5.4,99,0.00,,,0.00,1104.0,meteobridge,2013-11-08 13:10:00,
2013-11-08 08:15:00,69.8,69.4,30.08,East,90,4.5,4.5,99,0.00,,,0.00,1104.0,meteobridge,2013-11-08 13:15:00,
2013-11-08 08:20:00,70.0,69.6,30.09,North,0,6.0,6.0,99,0.00,,,0.00,1104.0,meteobridge,2013-11-08 13:20:00,
2013-11-08 08:26:00,69.8,69.4,30.09,North,0,3.8,8.3,99,0.00,,,0.00,1104.0,meteobridge,2013-11-08 13:26:00,
2013-11-08 08:31:00,70.0,69.6,30.09,SSW,203,3.8,6.0,99,0.00,,,0.00,1067.0,meteobridge,2013-11-08 13:31:00,
2013-11-08 08:36:00,70.0,69.6,30.10,NE,45,7.6,7.6,99,0.00,,,0.00,1067.0,meteobridge,2013-11-08 13:36:00,
2013-11-08 08:41:00,70.0,69.6,30.09,North,0,6.0,7.6,99,0.00,,,0.00,1067.0,meteobridge,2013-11-08 13:41:00,
2013-11-08 08:46:00,70.0,69.6,30.09,North,0,6.0,8.3,99,0.00,,,0.00,1067.0,meteobridge,2013-11-08 13:46:00,
2013-11-08 08:51:00,70.2,69.8,30.10,North,0,4.5,5.4,99,0.00,,,0.00,1067.0,meteobridge,2013-11-08 13:51:00,
2013-11-08 08:57:00,70.2,69.8,30.10,NE,45,6.9,6.9,99,0.00,,,0.00,1067.0,meteobridge,2013-11-08 13:57:00,
2013-11-08 09:02:00,70.2,69.6,30.09,NW,315,7.6,7.6,98,0.00,,,0.00,1067.0,meteobridge,2013-11-08 14:02:00,
2013-11-08 09:07:00,70.3,69.8,30.10,SE,135,8.3,8.3,98,0.00,,,0.00,1067.0,meteobridge,2013-11-08 14:07:00,
2013-11-08 09:12:00,70.3,69.4,30.10,North,0,6.9,7.6,97,0.00,,,0.00,1067.0,meteobridge,2013-11-08 14:12:00,
2013-11-08 09:17:00,70.3,69.1,30.10,NNW,338,6.9,7.6,96,0.00,,,0.00,1067.0,meteobridge,2013-11-08 14:17:00,
2013-11-08 09:22:00,70.5,69.3,30.10,WNW,293,6.0,9.2,96,0.00,,,0.00,1067.0,meteobridge,2013-11-08 14:22:00,
2013-11-08 09:28:00,70.7,69.4,30.11,ESE,113,13.0,13.0,96,0.00,,,0.00,1067.0,meteobridge,2013-11-08 14:28:00,
2013-11-08 09:33:00,70.9,69.4,30.11,NNW,338,7.6,7.6,95,0.00,,,0.00,1067.0,meteobridge,2013-11-08 14:33:00,
2013-11-08 09:38:00,71.1,69.3,30.11,North,0,8.3,8.3,94,0.00,,,0.00,1067.0,meteobridge,2013-11-08 14:38:00,
2013-11-08 09:43:00,71.4,69.3,30.11,ESE,113,3.1,9.2,93,0.00,,,0.00,1067.0,meteobridge,2013-11-08 14:43:00,
2013-11-08 09:48:00,71.4,69.3,30.11,North,0,9.8,9.8,93,0.00,,,0.00,1067.0,meteobridge,2013-11-08 14:48:00,
2013-11-08 09:53:00,71.4,68.9,30.11,North,0,6.9,9.2,92,0.00,,,0.00,1067.0,meteobridge,2013-11-08 14:53:00,
2013-11-08 09:59:00,72.0,68.9,30.11,NE,45,10.7,10.7,90,0.00,,,0.00,1067.0,meteobridge,2013-11-08 14:59:00,
2013-11-08 10:04:00,72.1,69.1,30.11,NNE,23,4.5,6.9,90,0.00,,,0.00,1067.0,meteobridge,2013-11-08 15:04:00,
2013-11-08 10:09:00,72.1,68.7,30.10,North,0,5.4,8.3,89,0.00,,,0.00,1067.0,meteobridge,2013-11-08 15:09:00,
2013-11-08 10:14:00,72.7,69.3,30.11,NW,315,6.9,6.9,89,0.00,,,0.00,1067.0,meteobridge,2013-11-08 15:14:00,
2013-11-08 10:19:00,74.5,70.0,30.11,NW,315,4.5,6.0,86,0.00,,,0.00,1104.0,meteobridge,2013-11-08 15:19:00,
2013-11-08 10:24:00,75.4,68.4,30.11,SE,135,7.6,9.2,79,0.00,,,0.00,1104.0,meteobridge,2013-11-08 15:24:00,
2013-11-08 10:30:00,74.8,67.8,30.11,East,90,8.3,8.3,79,0.00,,,0.00,1104.0,meteobridge,2013-11-08 15:30:00,
2013-11-08 10:35:00,74.8,68.5,30.10,NNW,338,6.0,6.0,81,0.00,,,0.00,1104.0,meteobridge,2013-11-08 15:35:00,
2013-11-08 10:40:00,75.6,68.5,30.10,SW,225,11.4,11.4,79,0.00,,,0.00,1104.0,meteobridge,2013-11-08 15:40:00,
2013-11-08 10:45:00,75.9,68.5,30.10,ENE,68,6.0,7.6,78,0.00,,,0.00,1104.0,meteobridge,2013-11-08 15:45:00,
2013-11-08 10:50:00,76.1,68.7,30.09,South,180,6.0,6.9,78,0.00,,,0.00,1104.0,meteobridge,2013-11-08 15:50:00,
2013-11-08 10:55:00,76.1,68.7,30.09,NE,45,7.6,8.3,78,0.00,,,0.00,1104.0,meteobridge,2013-11-08 15:55:00,
2013-11-08 11:01:00,76.5,68.7,30.09,SE,135,4.5,6.0,77,0.00,,,0.00,1140.0,meteobridge,2013-11-08 16:01:00,
2013-11-08 11:06:00,76.8,68.4,30.09,North,0,5.4,7.6,75,0.00,,,0.00,1140.0,meteobridge,2013-11-08 16:06:00,
2013-11-08 11:11:00,77.4,68.4,30.09,NNE,23,3.8,7.6,74,0.00,,,0.00,1140.0,meteobridge,2013-11-08 16:11:00,
2013-11-08 11:16:00,77.7,68.7,30.09,East,90,6.0,9.2,74,0.00,,,0.00,1140.0,meteobridge,2013-11-08 16:16:00,
2013-11-08 11:21:00,78.3,68.9,30.08,NE,45,4.5,4.5,73,0.00,,,0.00,1177.0,meteobridge,2013-11-08 16:21:00,
2013-11-08 11:26:00,78.8,68.2,30.08,NNE,23,6.9,6.9,70,0.00,,,0.00,1177.0,meteobridge,2013-11-08 16:26:00,
2013-11-08 11:32:00,79.3,68.4,30.08,North,0,8.3,8.3,69,0.00,,,0.00,1177.0,meteobridge,2013-11-08 16:32:00,
2013-11-08 11:37:00,79.5,68.9,30.08,South,180,3.1,4.5,70,0.00,,,0.00,1177.0,meteobridge,2013-11-08 16:37:00,
2013-11-08 11:42:00,80.1,68.5,30.07,North,0,6.9,6.9,68,0.00,,,0.00,1213.0,meteobridge,2013-11-08 16:42:00,
2013-11-08 11:47:00,80.6,68.2,30.07,NE,45,3.1,6.0,66,0.00,,,0.00,1213.0,meteobridge,2013-11-08 16:47:00,
2013-11-08 11:52:00,80.4,67.6,30.08,East,90,6.9,7.6,65,0.00,,,0.00,1213.0,meteobridge,2013-11-08 16:52:00,
2013-11-08 11:57:00,79.7,67.3,30.07,North,0,6.0,6.0,66,0.00,,,0.00,1213.0,meteobridge,2013-11-08 16:57:00,
2013-11-08 12:03:00,79.9,67.5,30.07,SE,135,7.6,9.2,66,0.00,,,0.00,1250.0,meteobridge,2013-11-08 17:03:00,
2013-11-08 12:08:00,79.9,67.5,30.07,East,90,6.0,8.3,66,0.00,,,0.00,1250.0,meteobridge,2013-11-08 17:08:00,
2013-11-08 12:13:00,79.9,67.5,30.07,NW,315,4.5,9.2,66,0.00,,,0.00,1250.0,meteobridge,2013-11-08 17:13:00,
2013-11-08 12:18:00,79.9,66.6,30.06,NW,315,8.3,9.2,64,0.00,,,0.00,1250.0,meteobridge,2013-11-08 17:18:00,
2013-11-08 12:23:00,80.1,67.6,30.06,NE,45,5.4,6.9,66,0.00,,,0.00,1287.0,meteobridge,2013-11-08 17:23:00,
2013-11-08 12:28:00,80.6,67.8,30.06,SE,135,3.8,3.8,65,0.00,,,0.00,1287.0,meteobridge,2013-11-08 17:28:00,
2013-11-08 12:34:00,80.6,66.9,30.05,East,90,3.8,7.6,63,0.00,,,0.00,1287.0,meteobridge,2013-11-08 17:34:00,
2013-11-08 12:39:00,80.6,66.9,30.05,WNW,293,6.0,6.0,63,0.00,,,0.00,1323.0,meteobridge,2013-11-08 17:39:00,
2013-11-08 12:44:00,81.0,65.3,30.05,NW,315,6.9,7.6,59,0.00,,,0.00,1323.0,meteobridge,2013-11-08 17:44:00,
2013-11-08 12:49:00,81.5,66.7,30.04,SE,135,2.2,5.4,61,0.00,,,0.00,1323.0,meteobridge,2013-11-08 17:49:00,
2013-11-08 12:54:00,81.9,66.2,30.04,SE,135,4.5,8.3,59,0.00,,,0.00,1323.0,meteobridge,2013-11-08 17:54:00,
2013-11-08 12:59:00,82.4,66.6,30.04,West,270,3.8,6.9,59,0.00,,,0.00,1323.0,meteobridge,2013-11-08 17:59:00,
2013-11-08 13:05:00,82.4,65.7,30.04,NE,45,6.9,6.9,57,0.00,,,0.00,1323.0,meteobridge,2013-11-08 18:05:00,
2013-11-08 13:10:00,82.6,66.4,30.04,North,0,3.1,3.1,58,0.00,,,0.00,1323.0,meteobridge,2013-11-08 18:10:00,
2013-11-08 13:15:00,82.4,65.1,30.04,East,90,4.5,4.5,56,0.00,,,0.00,1323.0,meteobridge,2013-11-08 18:15:00,
2013-11-08 13:20:00,82.4,65.1,30.03,North,0,9.2,9.2,56,0.00,,,0.00,1323.0,meteobridge,2013-11-08 18:20:00,
2013-11-08 13:25:00,82.4,65.7,30.03,NE,45,3.8,4.5,57,0.00,,,0.00,1323.0,meteobridge,2013-11-08 18:25:00,
2013-11-08 13:30:00,82.4,64.6,30.03,East,90,3.8,3.8,55,0.00,,,0.00,1323.0,meteobridge,2013-11-08 18:30:00,
2013-11-08 13:36:00,81.9,64.6,30.03,WNW,293,7.6,7.6,56,0.00,,,0.00,1323.0,meteobridge,2013-11-08 18:36:00,
2013-11-08 13:41:00,82.4,63.5,30.02,NW,315,6.9,6.9,53,0.00,,,0.00,1323.0,meteobridge,2013-11-08 18:41:00,
2013-11-08 13:46:00,82.6,63.7,30.02,NNE,23,3.8,7.6,53,0.00,,,0.00,1323.0,meteobridge,2013-11-08 18:46:00,
2013-11-08 13:51:00,82.8,63.9,30.02,NW,315,2.2,5.4,53,0.00,,,0.00,1323.0,meteobridge,2013-11-08 18:51:00,
2013-11-08 13:56:00,82.4,64.0,30.03,NW,315,3.8,9.2,54,0.00,,,0.00,1323.0,meteobridge,2013-11-08 18:56:00,
2013-11-08 14:01:00,82.4,63.0,30.03,North,0,4.5,4.5,52,0.00,,,0.00,1323.0,meteobridge,2013-11-08 19:01:00,
2013-11-08 14:06:00,82.0,63.1,30.02,ENE,68,8.3,8.3,53,0.00,,,0.00,1323.0,meteobridge,2013-11-08 19:06:00,
2013-11-08 14:12:00,81.7,63.0,30.03,NE,45,6.9,6.9,53,0.00,,,0.00,1323.0,meteobridge,2013-11-08 19:12:00,
2013-11-08 14:17:00,82.0,63.1,30.02,NE,45,6.9,10.7,53,0.00,,,0.00,1323.0,meteobridge,2013-11-08 19:17:00,
2013-11-08 14:22:00,82.2,62.8,30.03,NW,315,9.2,9.2,52,0.00,,,0.00,1323.0,meteobridge,2013-11-08 19:22:00,
2013-11-08 14:27:00,82.2,62.2,30.03,SSW,203,4.5,9.2,51,0.00,,,0.00,1323.0,meteobridge,2013-11-08 19:27:00,
2013-11-08 14:32:00,81.7,63.0,30.02,SE,135,6.0,12.1,53,0.00,,,0.00,1323.0,meteobridge,2013-11-08 19:32:00,
2013-11-08 14:37:00,81.7,62.4,30.02,East,90,4.5,11.4,52,0.00,,,0.00,1323.0,meteobridge,2013-11-08 19:37:00,
2013-11-08 14:43:00,81.5,62.8,30.02,NE,45,5.4,7.6,53,0.00,,,0.00,1360.0,meteobridge,2013-11-08 19:43:00,
2013-11-08 14:48:00,81.5,62.2,30.03,SW,225,6.9,9.8,52,0.00,,,0.00,1360.0,meteobridge,2013-11-08 19:48:00,
2013-11-08 14:53:00,81.3,63.1,30.03,SSE,158,3.8,8.3,54,0.00,,,0.00,1360.0,meteobridge,2013-11-08 19:53:00,
2013-11-08 14:58:00,81.7,61.9,30.02,NW,315,7.6,12.1,51,0.00,,,0.00,1360.0,meteobridge,2013-11-08 19:58:00,
2013-11-08 15:03:00,82.0,61.5,30.03,NE,45,13.0,13.0,50,0.00,,,0.00,1360.0,meteobridge,2013-11-08 20:03:00,
2013-11-08 15:08:00,82.0,61.5,30.03,North,0,7.6,7.6,50,0.00,,,0.00,1396.0,meteobridge,2013-11-08 20:08:00,
2013-11-08 15:14:00,81.5,61.7,30.03,NE,45,4.5,9.2,51,0.00,,,0.00,1396.0,meteobridge,2013-11-08 20:14:00,
2013-11-08 15:19:00,81.7,61.2,30.03,North,0,7.6,7.6,50,0.00,,,0.00,1396.0,meteobridge,2013-11-08 20:19:00,
2013-11-08 15:24:00,81.5,61.0,30.03,North,0,9.8,9.8,50,0.00,,,0.00,1396.0,meteobridge,2013-11-08 20:24:00,
2013-11-08 15:29:00,81.3,60.3,30.03,WNW,293,6.9,6.9,49,0.00,,,0.00,1433.0,meteobridge,2013-11-08 20:29:00,
2013-11-08 15:34:00,81.3,61.0,30.03,NW,315,11.4,11.4,50,0.00,,,0.00,1433.0,meteobridge,2013-11-08 20:34:00,
2013-11-08 15:39:00,80.6,60.8,30.03,NE,45,5.4,8.3,51,0.00,,,0.00,1433.0,meteobridge,2013-11-08 20:39:00,
2013-11-08 15:45:00,80.6,60.8,30.03,East,90,9.8,9.8,51,0.00,,,0.00,1433.0,meteobridge,2013-11-08 20:45:00,
2013-11-08 15:50:00,80.1,60.8,30.03,North,0,8.3,13.0,52,0.00,,,0.00,1470.0,meteobridge,2013-11-08 20:50:00,
2013-11-08 15:55:00,80.4,61.7,30.04,East,90,3.8,6.0,53,0.00,,,0.00,1470.0,meteobridge,2013-11-08 20:55:00,
2013-11-08 16:00:00,80.2,61.5,30.04,East,90,5.4,8.3,53,0.00,,,0.00,1470.0,meteobridge,2013-11-08 21:00:00,
2013-11-08 16:05:00,80.2,61.5,30.03,East,90,9.2,9.2,53,0.00,,,0.00,1470.0,meteobridge,2013-11-08 21:05:00,
2013-11-08 16:10:00,79.3,61.2,30.03,SE,135,6.9,9.2,54,0.00,,,0.00,1506.0,meteobridge,2013-11-08 21:10:00,
2013-11-08 16:16:00,78.8,61.3,30.03,East,90,11.4,11.4,55,0.00,,,0.00,1506.0,meteobridge,2013-11-08 21:16:00,
2013-11-08 16:21:00,78.6,61.5,30.04,NW,315,6.0,8.3,56,0.00,,,0.00,1506.0,meteobridge,2013-11-08 21:21:00,
2013-11-08 16:26:00,78.4,61.9,30.04,SE,135,4.5,5.4,57,0.00,,,0.00,1506.0,meteobridge,2013-11-08 21:26:00,
2013-11-08 16:31:00,78.3,61.7,30.04,NNE,23,7.6,7.6,57,0.00,,,0.00,1543.0,meteobridge,2013-11-08 21:31:00,
2013-11-08 16:36:00,78.1,62.1,30.04,NE,45,6.0,8.3,58,0.00,,,0.00,1543.0,meteobridge,2013-11-08 21:36:00,
2013-11-08 16:41:00,77.9,61.9,30.04,NE,45,6.0,6.9,58,0.00,,,0.00,1543.0,meteobridge,2013-11-08 21:41:00,
2013-11-08 16:47:00,77.7,62.2,30.04,South,180,4.5,9.8,59,0.00,,,0.00,1543.0,meteobridge,2013-11-08 21:47:00,
2013-11-08 16:52:00,77.5,62.1,30.04,NE,45,3.8,5.4,59,0.00,,,0.00,1580.0,meteobridge,2013-11-08 21:52:00,
2013-11-08 16:57:00,77.4,62.8,30.04,North,0,4.5,6.0,61,0.00,,,0.00,1580.0,meteobridge,2013-11-08 21:57:00,
2013-11-08 17:02:00,77.2,62.6,30.04,NW,315,3.8,8.3,61,0.00,,,0.00,1580.0,meteobridge,2013-11-08 22:02:00,
2013-11-08 17:07:00,77.2,63.1,30.04,East,90,6.0,6.0,62,0.00,,,0.00,1580.0,meteobridge,2013-11-08 22:07:00,
2013-11-08 17:13:00,77.0,63.0,30.05,East,90,4.5,7.6,62,0.00,,,0.00,1616.0,meteobridge,2013-11-08 22:13:00,
2013-11-08 17:18:00,77.0,63.5,30.05,NW,315,5.4,5.4,63,0.00,,,0.00,1616.0,meteobridge,2013-11-08 22:18:00,
2013-11-08 17:23:00,76.8,63.3,30.05,East,90,4.5,5.4,63,0.00,,,0.00,1653.0,meteobridge,2013-11-08 22:23:00,
2013-11-08 17:28:00,76.6,63.5,30.05,NE,45,6.0,6.0,64,0.00,,,0.00,1653.0,meteobridge,2013-11-08 22:28:00,
2013-11-08 17:33:00,76.3,63.1,30.05,NNE,23,3.1,3.1,64,0.00,,,0.00,1653.0,meteobridge,2013-11-08 22:33:00,
2013-11-08 17:38:00,76.1,63.5,30.05,East,90,3.1,4.5,65,0.00,,,0.00,1653.0,meteobridge,2013-11-08 22:38:00,
2013-11-08 17:44:00,75.7,63.5,30.05,West,270,3.8,4.5,66,0.00,,,0.00,1653.0,meteobridge,2013-11-08 22:44:00,
2013-11-08 17:49:00,75.4,63.7,30.05,NE,45,3.1,3.1,67,0.00,,,0.00,1689.0,meteobridge,2013-11-08 22:49:00,
2013-11-08 17:54:00,75.0,63.7,30.05,NW,315,7.6,7.6,68,0.00,,,0.00,1689.0,meteobridge,2013-11-08 22:54:00,
2013-11-08 17:59:00,75.0,63.7,30.05,ENE,68,6.0,6.0,68,0.00,,,0.00,1689.0,meteobridge,2013-11-08 22:59:00,
2013-11-08 18:04:00,74.7,63.9,30.06,North,0,3.1,4.5,69,0.00,,,0.00,1689.0,meteobridge,2013-11-08 23:04:00,
2013-11-08 18:09:00,74.5,64.0,30.06,North,0,5.4,7.6,70,0.00,,,0.00,1689.0,meteobridge,2013-11-08 23:09:00,
2013-11-08 18:15:00,74.3,64.2,30.06,North,0,3.1,8.3,71,0.00,,,0.00,1689.0,meteobridge,2013-11-08 23:15:00,
2013-11-08 18:20:00,73.9,64.4,30.07,East,90,3.8,7.6,72,0.00,,,0.00,1653.0,meteobridge,2013-11-08 23:20:00,
2013-11-08 18:25:00,73.8,64.2,30.06,NE,45,3.8,3.8,72,0.00,,,0.00,1653.0,meteobridge,2013-11-08 23:25:00,
2013-11-08 18:30:00,73.8,64.6,30.07,ESE,113,3.1,3.1,73,0.00,,,0.00,1653.0,meteobridge,2013-11-08 23:30:00,
2013-11-08 18:35:00,73.4,64.2,30.07,NW,315,3.1,3.1,73,0.00,,,0.00,1653.0,meteobridge,2013-11-08 23:35:00,
2013-11-08 18:40:00,73.2,64.4,30.08,East,90,5.4,5.4,74,0.00,,,0.00,1653.0,meteobridge,2013-11-08 23:40:00,
2013-11-08 18:46:00,73.0,64.2,30.08,NW,315,4.5,4.5,74,0.00,,,0.00,1653.0,meteobridge,2013-11-08 23:46:00,
2013-11-08 18:51:00,72.9,64.4,30.08,NW,315,4.5,8.3,75,0.00,,,0.00,1653.0,meteobridge,2013-11-08 23:51:00,
2013-11-08 18:56:00,72.7,64.2,30.08,ESE,113,4.5,6.9,75,0.00,,,0.00,1653.0,meteobridge,2013-11-08 23:56:00,
2013-11-08 19:01:00,72.5,64.6,30.09,SE,135,3.8,5.4,76,0.00,,,0.00,1580.0,meteobridge,2013-11-09 00:01:00,
2013-11-08 19:06:00,72.3,64.4,30.09,ENE,68,5.4,6.0,76,0.00,,,0.00,1580.0,meteobridge,2013-11-09 00:06:00,
2013-11-08 19:11:00,72.1,64.6,30.09,NW,315,3.1,3.8,77,0.00,,,0.00,1580.0,meteobridge,2013-11-09 00:11:00,
2013-11-08 19:17:00,72.0,64.4,30.09,East,90,2.2,4.5,77,0.00,,,0.00,1580.0,meteobridge,2013-11-09 00:17:00,
2013-11-08 19:22:00,71.6,64.4,30.09,East,90,3.8,3.8,78,0.00,,,0.00,1580.0,meteobridge,2013-11-09 00:22:00,
2013-11-08 19:27:00,71.4,64.6,30.09,East,90,3.1,4.5,79,0.00,,,0.00,1580.0,meteobridge,2013-11-09 00:27:00,
2013-11-08 19:32:00,71.2,64.4,30.10,ESE,113,2.2,3.1,79,0.00,,,0.00,1580.0,meteobridge,2013-11-09 00:32:00,
2013-11-08 19:37:00,71.1,64.6,30.10,North,0,3.8,3.8,80,0.00,,,0.00,1580.0,meteobridge,2013-11-09 00:37:00,
2013-11-08 19:42:00,70.9,64.4,30.10,East,90,6.9,6.9,80,0.00,,,0.00,1580.0,meteobridge,2013-11-09 00:42:00,
2013-11-08 19:48:00,70.9,64.8,30.10,NNE,23,5.4,5.4,81,0.00,,,0.00,1580.0,meteobridge,2013-11-09 00:48:00,
2013-11-08 19:53:00,70.9,64.8,30.10,South,180,6.9,6.9,81,0.00,,,0.00,1580.0,meteobridge,2013-11-09 00:53:00,
2013-11-08 19:58:00,70.7,64.6,30.10,East,90,3.1,3.1,81,0.00,,,0.00,1580.0,meteobridge,2013-11-09 00:58:00,
2013-11-08 20:03:00,70.7,64.6,30.10,SE,135,3.8,5.4,81,0.00,,,0.00,1580.0,meteobridge,2013-11-09 01:03:00,
2013-11-08 20:08:00,70.5,64.4,30.10,North,0,3.8,3.8,81,0.00,,,0.00,1580.0,meteobridge,2013-11-09 01:08:00,
2013-11-08 20:13:00,70.3,64.6,30.11,NE,45,3.8,3.8,82,0.00,,,0.00,1616.0,meteobridge,2013-11-09 01:13:00,
2013-11-08 20:19:00,70.0,64.2,30.11,North,0,3.8,6.0,82,0.00,,,0.00,1616.0,meteobridge,2013-11-09 01:19:00,
2013-11-08 20:24:00,70.0,64.6,30.11,North,0,2.2,4.5,83,0.00,,,0.00,1616.0,meteobridge,2013-11-09 01:24:00,
2013-11-08 20:29:00,69.6,64.6,30.11,NW,315,1.6,2.2,84,0.00,,,0.00,1616.0,meteobridge,2013-11-09 01:29:00,
2013-11-08 20:34:00,69.6,64.9,30.11,SE,135,2.2,6.0,85,0.00,,,0.00,1616.0,meteobridge,2013-11-09 01:34:00,
2013-11-08 20:39:00,69.4,64.8,30.11,ESE,113,3.1,3.1,85,0.00,,,0.00,1616.0,meteobridge,2013-11-09 01:39:00,
2013-11-08 20:44:00,69.4,64.8,30.11,SW,225,3.8,3.8,85,0.00,,,0.00,1616.0,meteobridge,2013-11-09 01:44:00,
2013-11-08 20:50:00,69.3,64.9,30.11,NE,45,3.8,3.8,86,0.00,,,0.00,1616.0,meteobridge,2013-11-09 01:50:00,
2013-11-08 20:55:00,69.1,64.8,30.11,North,0,3.8,5.4,86,0.00,,,0.00,1616.0,meteobridge,2013-11-09 01:55:00,
2013-11-08 21:00:00,69.1,64.8,30.11,WSW,248,2.2,3.8,86,0.00,,,0.00,1616.0,meteobridge,2013-11-09 02:00:00,
2013-11-08 21:05:00,68.9,64.6,30.11,North,0,1.6,6.0,86,0.00,,,0.00,1616.0,meteobridge,2013-11-09 02:05:00,
2013-11-08 21:10:00,68.7,64.4,30.11,NNW,338,3.1,3.8,86,0.00,,,0.00,1616.0,meteobridge,2013-11-09 02:10:00,
2013-11-08 21:15:00,68.7,64.4,30.11,East,90,2.2,3.8,86,0.00,,,0.00,1616.0,meteobridge,2013-11-09 02:15:00,
2013-11-08 21:21:00,68.7,64.4,30.11,NE,45,0.7,2.2,86,0.00,,,0.00,1616.0,meteobridge,2013-11-09 02:21:00,
2013-11-08 21:26:00,68.5,64.6,30.11,West,270,1.6,1.6,87,0.00,,,0.00,1616.0,meteobridge,2013-11-09 02:26:00,
2013-11-08 21:31:00,68.4,64.4,30.12,South,180,4.5,5.4,87,0.00,,,0.00,1616.0,meteobridge,2013-11-09 02:31:00,
2013-11-08 21:36:00,68.4,64.6,30.12,East,90,2.2,7.6,88,0.00,,,0.00,1616.0,meteobridge,2013-11-09 02:36:00,
2013-11-08 21:41:00,68.2,64.4,30.12,North,0,3.1,5.4,88,0.00,,,0.00,1580.0,meteobridge,2013-11-09 02:41:00,
2013-11-08 21:46:00,68.2,64.4,30.12,NE,45,2.2,5.4,88,0.00,,,0.00,1580.0,meteobridge,2013-11-09 02:46:00,
2013-11-08 21:52:00,68.0,64.4,30.11,SW,225,2.2,6.0,88,0.00,,,0.00,1580.0,meteobridge,2013-11-09 02:52:00,
2013-11-08 21:57:00,68.0,64.4,30.11,North,0,3.1,3.1,88,0.00,,,0.00,1580.0,meteobridge,2013-11-09 02:57:00,
2013-11-08 22:02:00,67.8,64.2,30.11,NNE,23,2.2,4.5,88,0.00,,,0.00,1580.0,meteobridge,2013-11-09 03:02:00,
2013-11-08 22:07:00,67.6,64.0,30.12,NE,45,3.1,3.1,88,0.00,,,0.00,1580.0,meteobridge,2013-11-09 03:07:00,
2013-11-08 22:12:00,67.6,64.0,30.12,North,0,4.5,4.5,88,0.00,,,0.00,1506.0,meteobridge,2013-11-09 03:12:00,
2013-11-08 22:17:00,67.5,63.9,30.12,SW,225,3.1,3.1,88,0.00,,,0.00,1506.0,meteobridge,2013-11-09 03:17:00,
2013-11-08 22:23:00,67.3,63.7,30.11,West,270,5.4,5.4,88,0.00,,,0.00,1433.0,meteobridge,2013-11-09 03:23:00,
2013-11-08 22:28:00,67.1,63.7,30.12,NW,315,1.6,3.1,89,0.00,,,0.00,1433.0,meteobridge,2013-11-09 03:28:00,
2013-11-08 22:33:00,67.1,63.7,30.12,North,0,6.0,6.0,89,0.00,,,0.00,1396.0,meteobridge,2013-11-09 03:33:00,
2013-11-08 22:38:00,66.9,63.5,30.12,East,90,3.1,6.0,89,0.00,,,0.00,1396.0,meteobridge,2013-11-09 03:38:00,
2013-11-08 22:43:00,66.7,63.3,30.11,NE,45,3.1,3.1,89,0.00,,,0.00,1396.0,meteobridge,2013-11-09 03:43:00,
2013-11-08 22:49:00,66.7,63.3,30.12,NE,45,5.4,5.4,89,0.00,,,0.00,1360.0,meteobridge,2013-11-09 03:49:00,
2013-11-08 22:54:00,66.6,63.1,30.12,South,180,1.6,4.5,89,0.00,,,0.00,1360.0,meteobridge,2013-11-09 03:54:00,
2013-11-08 22:59:00,66.6,63.5,30.12,SW,225,1.6,3.1,90,0.00,,,0.00,1360.0,meteobridge,2013-11-09 03:59:00,
2013-11-08 23:04:00,66.4,63.3,30.12,NE,45,3.1,5.4,90,0.00,,,0.00,1360.0,meteobridge,2013-11-09 04:04:00,
2013-11-08 23:09:00,66.4,63.7,30.11,NW,315,1.6,5.4,91,0.00,,,0.00,1360.0,meteobridge,2013-11-09 04:09:00,
2013-11-08 23:14:00,66.2,63.5,30.11,SE,135,3.8,7.6,91,0.00,,,0.00,1360.0,meteobridge,2013-11-09 04:14:00,
2013-11-08 23:20:00,66.2,63.5,30.12,SW,225,1.6,3.1,91,0.00,,,0.00,1360.0,meteobridge,2013-11-09 04:20:00,
2013-11-08 23:25:00,66.2,63.5,30.12,NE,45,2.2,4.5,91,0.00,,,0.00,1360.0,meteobridge,2013-11-09 04:25:00,
2013-11-08 23:30:00,66.0,63.3,30.12,SE,135,3.8,3.8,91,0.00,,,0.00,1360.0,meteobridge,2013-11-09 04:30:00,
2013-11-08 23:35:00,65.8,63.1,30.12,North,0,3.1,3.8,91,0.00,,,0.00,1360.0,meteobridge,2013-11-09 04:35:00,
2013-11-08 23:40:00,65.8,63.1,30.12,North,0,4.5,4.5,91,0.00,,,0.00,1360.0,meteobridge,2013-11-09 04:40:00,
2013-11-08 23:45:00,65.7,63.0,30.12,North,0,1.6,3.8,91,0.00,,,0.00,1360.0,meteobridge,2013-11-09 04:45:00,
2013-11-08 23:51:00,65.7,63.3,30.12,NW,315,0.7,3.1,92,0.00,,,0.00,1360.0,meteobridge,2013-11-09 04:51:00,
2013-11-08 23:56:00,65.5,63.1,30.11,NE,45,1.6,3.8,92,0.00,,,0.00,1360.0,meteobridge,2013-11-09 04:56:00,